Find OneWeb SL0650

NORAD ID: 55813 Int'l Des: 2023-029 Owner: ONEWEBN Country: UK Constellation: oneweb operational
LEOCIRCULARPOLARONEWEB_TYPE

リアルタイム位置

3D地球を読み込み中...

OneWeb SL0650について

説明を読み込み中...

次回通過

Passes for default location (London). Set your location on the main map for personalized predictions.

高度履歴

Loading altitude history...

軌道要素

1 55813U 23029T 26125.46868873 .00000063 00000-0 12524-3 0 9990
2 55813 87.9145 313.4958 0001695 74.3730 285.7590 13.19724608153260
Epoch: May 5, 2026 • Age: 11 hours

現在のステータス

高度 1197.9 km
速度 7.26 km/s
衛星直下点 77.52°N, 80.07°W
打ち上げ日 Mar 9, 2023
運用期間 3.1 years
タイプ internet

技術仕様

分類 Payload
質量 148.00 kg
乾燥質量 140.00 kg
総質量 148.00 kg
長さ 1.30 m
直径 1.00 m
スパン 5.00 m
形状 Trapezoid+2 pan
製造者 ONEWUS
バスタイプ ARROW
フェーズステータス In Orbit
所有者/国 ONEWEBN/UK

Most Searched